DW3560 Weather Reports


time (UTC)temp
C
wind
direction
speed
KPH
gust
KPH
rain 1hr
cm
rain 24hr
cm
rain mn
cm
humidity
%
barometer
mb
20260505052023 11 351 0.0 3.2 0.00 0.00 0.00 85 1014.8
20260505051502 11 352 0.0 3.2 0.00 0.00 0.00 85 1015.1
20260505051002 11 354 0.0 3.2 0.00 0.00 0.00 85 1015.3
20260505050502 11 9 0.0 3.2 0.00 0.00 0.00 85 1015.3
20260505041502 11 7 0.0 3.2 0.00 0.00 0.00 84 1014.3
20260505041001 11 5 0.0 1.6 0.00 0.00 0.00 84 1014.3
20260505040501 11 10 0.0 1.6 0.00 0.00 0.00 83 1014.3
20260505040002 11 8 0.0 3.2 0.00 0.00 0.00 83 1014.3
20260505035501 11 8 0.0 3.2 0.00 0.00 0.00 83 1014.3
20260505035001 11 13 0.0 3.2 0.00 0.00 0.00 83 1014.3
20260505034501 11 16 0.0 3.2 0.00 0.00 0.00 83 1014.3
20260505034002 11 23 0.0 1.6 0.00 0.00 0.00 82 1014.3
20260505033502 11 17 0.0 4.8 0.00 0.00 0.00 82 1014.3
20260505033023 12 360 0.0 4.8 0.00 0.00 0.00 82 1014.3
20260505032502 12 331 0.0 1.6 0.00 0.00 0.00 82 1014.3
20260505032023 12 322 0.0 3.2 0.00 0.00 0.00 82 1014.3
20260505031502 12 22 0.0 3.2 0.00 0.00 0.00 82 1014.3
20260505031002 12 8 0.0 4.8 0.00 0.00 0.00 82 1014.2
20260505030502 12 336 0.0 4.8 0.00 0.00 0.00 82 1014.2
20260505030003 12 319 0.0 6.4 0.00 0.00 0.00 82 1014.2
20260505025502 12 328 1.6 6.4 0.00 0.00 0.00 82 1014.2
20260505025001 12 313 0.0 6.4 0.00 0.00 0.00 82 1014.2
20260505024502 12 272 0.0 4.8 0.00 0.00 0.00 82 1014.2
20260505024002 12 317 0.0 3.2 0.00 0.00 0.00 82 1014.2
20260505023523 12 312 0.0 8.0 0.00 0.00 0.00 82 1014.2
20260505023023 12 314 0.0 8.0 0.00 0.00 0.00 83 1014.2
20260505022502 12 327 0.0 3.2 0.00 0.00 0.00 82 1014.2
20260505022002 13 338 0.0 4.8 0.00 0.00 0.00 82 1014.2
20260505021502 13 336 0.0 14.5 0.00 0.00 0.00 82 1014.2
20260505021002 13 329 0.0 14.5 0.00 0.00 0.00 82 1014.6
20260505020502 13 319 0.0 4.8 0.00 0.00 0.00 81 1014.6
20260505020002 13 325 0.0 4.8 0.00 0.00 0.00 81 1014.6
20260505015502 13 328 0.0 4.8 0.00 0.00 0.00 81 1014.6
20260505015002 13 241 0.0 4.8 0.00 0.00 0.00 81 1014.6
20260505014502 13 342 0.0 6.4 0.00 0.00 0.00 80 1014.6
20260505014002 13 355 0.0 6.4 0.00 0.00 0.00 80 1014.6
20260505013502 13 345 1.6 6.4 0.00 0.00 0.00 79 1014.6
20260505013002 13 339 1.6 6.4 0.00 0.00 0.00 79 1014.6
20260505012502 13 286 0.0 4.8 0.00 0.00 0.00 78 1014.6
20260505012001 13 336 0.0 4.8 0.00 0.00 0.00 78 1014.6
20260505011502 13 352 0.0 6.4 0.00 0.00 0.00 77 1014.6
20260505011002 13 353 1.6 9.7 0.00 0.00 0.00 76 1014.9
20260505010502 13 349 1.6 9.7 0.00 0.00 0.00 76 1014.9
20260505010002 14 341 3.2 17.7 0.00 0.00 0.00 75 1014.9
20260505005502 14 339 3.2 17.7 0.00 0.00 0.00 74 1014.9
20260505005002 14 336 0.0 4.8 0.00 0.00 0.00 74 1014.9
20260505004502 14 5 1.6 6.4 0.00 0.00 0.00 74 1014.9
20260505004023 15 7 1.6 9.7 0.00 0.00 0.00 73 1014.9
20260505003502 15 352 1.6 9.7 0.00 0.00 0.00 73 1014.9
20260505003023 15 351 1.6 4.8 0.00 0.00 0.00 72 1014.9
20260505002502 15 343 1.6 8.0 0.00 0.00 0.00 70 1014.9
20260505002002 15 354 1.6 8.0 0.00 0.00 0.00 69 1014.9
20260505001502 15 2 1.6 6.4 0.00 0.00 0.00 69 1014.9
20260505001002 15 357 1.6 6.4 0.00 0.00 0.00 69 1014.7
20260505000502 15 309 1.6 8.0 0.00 0.00 0.00 68 1014.7
20260505000002 15 274 1.6 8.0 0.00 0.00 0.00 67 1014.7
20260504235502 15 338 1.6 8.0 0.00 0.00 0.00 67 1014.7
20260504235002 15 350 1.6 8.0 0.00 0.00 0.00 65 1014.7
20260504234502 16 350 1.6 8.0 0.00 0.00 0.00 64 1014.7
20260504234023 16 330 1.6 8.0 0.00 0.00 0.00 65 1014.7
20260504233523 16 331 1.6 8.0 0.00 0.00 0.00 65 1014.7
20260504233002 16 354 1.6 14.5 0.00 0.00 0.00 65 1014.7
20260504232502 16 330 1.6 14.5 0.00 0.00 0.00 64 1014.7
20260504232002 16 314 1.6 14.5 0.00 0.00 0.00 64 1014.7
20260504231502 16 343 3.2 14.5 0.00 0.00 0.00 64 1014.7
20260504231002 16 350 1.6 14.5 0.00 0.00 0.00 64 1014.9
20260504230502 16 329 3.2 9.7 0.00 0.00 0.00 65 1014.9
20260504230002 16 329 3.2 14.5 0.00 0.00 0.00 64 1014.9
20260504225523 16 315 3.2 14.5 0.00 0.00 0.00 64 1014.9
20260504225002 17 248 1.6 6.4 0.00 0.00 0.00 66 1014.9
20260504224523 16 207 1.6 6.4 0.00 0.00 0.00 65 1014.9
20260504224002 16 168 1.6 9.7 0.00 0.00 0.00 66 1014.9
20260504223502 16 268 1.6 9.7 0.00 0.00 0.00 66 1014.9
20260504223002 16 244 1.6 8.0 0.00 0.00 0.00 66 1014.9
20260504222502 16 296 1.6 8.0 0.00 0.00 0.00 67 1014.9
20260504222002 16 295 1.6 11.3 0.00 0.00 0.00 67 1014.9
20260504221502 16 302 1.6 12.9 0.00 0.00 0.00 67 1014.9
20260504221002 16 281 1.6 12.9 0.00 0.00 0.00 67 1015.0
20260504220502 16 319 1.6 9.7 0.00 0.00 0.00 67 1015.0
20260504220002 16 318 1.6 9.7 0.00 0.00 0.00 66 1015.0
20260504215523 16 314 1.6 8.0 0.00 0.00 0.00 65 1015.0
20260504215002 16 339 1.6 8.0 0.00 0.00 0.00 66 1015.0
20260504214502 16 323 1.6 6.4 0.00 0.00 0.00 67 1015.0
20260504214002 16 292 3.2 8.0 0.00 0.00 0.00 67 1015.0
20260504213523 16 254 3.2 8.0 0.00 0.00 0.00 66 1015.0
20260504213023 16 239 3.2 11.3 0.00 0.00 0.00 66 1015.0
20260504212502 17 305 1.6 11.3 0.00 0.00 0.00 66 1015.0
20260504212002 17 324 1.6 11.3 0.00 0.00 0.00 67 1015.0
20260504211502 17 267 3.2 11.3 0.00 0.00 0.00 67 1015.0
20260504211023 16 279 1.6 9.7 0.00 0.00 0.00 68 1015.0
20260504210502 16 242 1.6 11.3 0.00 0.00 0.00 68 1015.0
20260504210002 16 239 3.2 11.3 0.00 0.00 0.00 68 1015.0
20260504205502 16 239 3.2 17.7 0.00 0.00 0.00 67 1015.0
20260504205002 16 241 3.2 17.7 0.00 0.00 0.00 67 1015.0
20260504204502 16 250 1.6 8.0 0.00 0.00 0.00 68 1015.0
20260504204002 16 231 3.2 9.7 0.00 0.00 0.00 68 1015.0
20260504203502 16 257 3.2 9.7 0.00 0.00 0.00 65 1015.0
20260504203023 16 236 3.2 11.3 0.00 0.00 0.00 66 1015.0
20260504202502 16 220 3.2 11.3 0.00 0.00 0.00 65 1015.0
20260504202023 17 231 3.2 11.3 0.00 0.00 0.00 64 1015.0
20260504201502 17 258 3.2 11.3 0.00 0.00 0.00 63 1015.0
20260504201023 17 312 3.2 12.9 0.00 0.00 0.00 66 1015.0
20260504200502 17 256 3.2 12.9 0.00 0.00 0.00 64 1015.0
20260504200002 17 258 3.2 9.7 0.00 0.00 0.00 64 1015.0
20260504195502 17 316 3.2 12.9 0.00 0.00 0.00 66 1015.0
20260504195002 17 264 3.2 12.9 0.00 0.00 0.00 65 1015.0
20260504194502 17 245 3.2 14.5 0.00 0.00 0.00 64 1015.0
20260504194002 17 245 3.2 14.5 0.00 0.00 0.00 64 1015.0
20260504193502 17 235 1.6 12.9 0.00 0.00 0.00 64 1015.0
20260504193002 17 330 1.6 9.7 0.00 0.00 0.00 65 1015.0
20260504192523 17 329 1.6 9.7 0.00 0.00 0.00 65 1015.0
20260504192023 17 281 1.6 8.0 0.00 0.00 0.00 66 1015.0
20260504191502 17 278 3.2 16.1 0.00 0.00 0.00 65 1015.0
20260504191002 17 253 1.6 8.0 0.00 0.00 0.00 64 1015.1
20260504190502 17 272 1.6 8.0 0.00 0.00 0.00 65 1015.1
20260504190002 16 335 1.6 8.0 0.00 0.00 0.00 66 1015.1
20260504185502 16 327 1.6 9.7 0.00 0.00 0.00 67 1015.1
20260504185002 16 279 1.6 9.7 0.00 0.00 0.00 65 1015.1
20260504184502 16 342 1.6 8.0 0.00 0.00 0.00 68 1015.1
20260504184002 16 352 3.2 9.7 0.00 0.00 0.00 68 1015.1
20260504183502 16 344 3.2 9.7 0.00 0.00 0.00 68 1015.1
20260504183023 16 338 1.6 8.0 0.00 0.00 0.00 70 1015.1
20260504182502 16 341 3.2 8.0 0.00 0.00 0.00 70 1015.1
20260504182002 15 347 1.6 12.9 0.00 0.00 0.00 69 1015.1
20260504181502 15 348 1.6 12.9 0.00 0.00 0.00 69 1015.1
20260504181002 15 349 1.6 12.9 0.00 0.00 0.00 71 1014.8
20260504180523 15 343 3.2 12.9 0.00 0.00 0.00 71 1014.8
20260504180023 15 275 3.2 9.7 0.00 0.00 0.00 72 1014.8
20260504175502 15 238 3.2 8.0 0.00 0.00 0.00 71 1014.8
20260504175002 15 280 1.6 6.4 0.00 0.00 0.00 71 1014.8
20260504174502 15 312 1.6 6.4 0.00 0.00 0.00 73 1014.8
20260504174023 15 302 1.6 6.4 0.00 0.00 0.00 73 1014.8
20260504173502 15 251 1.6 6.4 0.00 0.00 0.00 74 1014.8
20260504173002 14 216 1.6 8.0 0.00 0.00 0.00 75 1014.8
20260504172502 14 228 1.6 8.0 0.00 0.00 0.00 75 1014.8
20260504172002 13 218 3.2 9.7 0.00 0.00 0.00 76 1014.8
20260504171502 13 209 3.2 9.7 0.00 0.00 0.00 77 1014.8
20260504171003 13 205 4.8 9.7 0.00 0.00 0.00 76 1014.0
20260504170502 13 187 4.8 9.7 0.00 0.00 0.00 77 1014.0
20260504151023 11 148 1.6 6.4 0.00 0.00 0.00 84 1014.0
20260504150502 10 153 1.6 6.4 0.00 0.00 0.00 85 1014.0
20260504141002 10 144 1.6 3.2 0.00 0.00 0.00 87 1014.0
20260504140502 10 145 1.6 4.8 0.00 0.00 0.00 87 1014.0
20260504130502 10 190 1.6 3.2 0.00 0.00 0.00 87 1014.0
20260504110502 10 169 0.0 3.2 0.00 0.00 0.00 90 1014.0
20260504100502 10 226 0.0 3.2 0.00 0.00 0.00 90 1014.0
20260504082003 10 189 1.6 6.4 0.00 0.00 0.00 89 1014.3
20260504081502 10 189 1.6 6.4 0.00 0.00 0.00 89 1014.3
20260504081002 10 190 1.6 4.8 0.00 0.00 0.00 89 1014.3
20260504080502 10 188 0.0 3.2 0.00 0.00 0.00 89 1014.3